Change the Weather History Date:

Wednesday, September 4, 2013

  Actual Average Record
Temperature  
Mean Temperature 50 °F -  
Max Temperature 57 °F 55 °F 71 °F (1957)
Min Temperature 44 °F 37 °F 23 °F (1961)
Degree Days  
Heating Degree Days 16    
Moisture  
Dew Point 47 °F    
Average Humidity 93    
Maximum Humidity 100    
Minimum Humidity 80    
Precipitation  
Precipitation 0.19 in - - ()
Sea Level Pressure  
Sea Level Pressure 29.47 in    
Wind  
Wind Speed 3 mph (East)    
Max Wind Speed 9 mph    
Max Gust Speed -    
Visibility 10 miles    
Events Rain    
Averages and records for this station are not official NWS values.
T = Trace of Precipitation, MM = Missing Value Source: NWS Daily Summary

Daily Weather History Graph

Daily Weather History Graph

Search for Another Location

Airport or City:

Trip Planner

Search our weather history database for the weather conditions in past years. The results will help you decide how hot, cold, wet, or windy it might be!

Date:

Astronomy

Sep. 04, 2013 Rise Set
Actual Time 6:57 AM AKDT 9:14 PM AKDT
Civil Twilight 6:03 AM AKDT 10:08 PM AKDT
Nautical Twilight 4:47 AM AKDT 11:22 PM AKDT
Astronomical Twilight 2:39 AM AKDT 1:42 AM AKDT
Moon 6:26 AM AKDT (9/4) 8:21 PM AKDT (9/4)
Length of Visible Light 16h 05m
Length of Day
14h 16m
Waning Crescent, 0% of the Moon is Illuminated
Sep 4
Waning Crescent
Sep 5
New
Sep 12
First Quarter
Sep 19
Full
Sep 26
Last Quarter

Hourly Weather History & Observations

Time (AKDT) Temp. Windchill Dew Point Humidity Pressure Visibility Wind Dir Wind Speed Gust Speed Precip Events Conditions
12:52 AM 46.9 °F - 46.0 °F 97% 29.35 in 10.0 mi ENE 3.5 mph - N/A   Scattered Clouds
1:52 AM 46.0 °F 44.8 °F 45.0 °F 96% 29.37 in 10.0 mi North 3.5 mph - N/A   Partly Cloudy
2:52 AM 46.9 °F - 45.0 °F 93% 29.37 in 10.0 mi NE 3.5 mph - N/A   Overcast
3:52 AM 46.0 °F 43.9 °F 45.0 °F 96% 29.37 in 10.0 mi NE 4.6 mph - N/A   Overcast
4:52 AM 46.9 °F - 45.0 °F 93% 29.38 in 10.0 mi NNE 3.5 mph - N/A   Overcast
5:52 AM 46.0 °F 44.8 °F 45.0 °F 96% 29.37 in 10.0 mi NE 3.5 mph - N/A   Mostly Cloudy
6:32 AM 44.6 °F 42.2 °F 44.6 °F 100% 29.37 in 10.0 mi NNE 4.6 mph - N/A   Mostly Cloudy
6:52 AM 45.0 °F 42.6 °F 43.0 °F 93% 29.38 in 10.0 mi East 4.6 mph - N/A   Mostly Cloudy
7:52 AM 45.0 °F - 44.1 °F 97% 29.39 in 10.0 mi Calm Calm - N/A   Mostly Cloudy
8:52 AM 46.9 °F - 45.0 °F 93% 29.40 in 10.0 mi NNE 4.6 mph - N/A   Mostly Cloudy
9:52 AM 48.9 °F - 46.9 °F 93% 29.40 in 10.0 mi Calm Calm - N/A   Mostly Cloudy
10:52 AM 50.0 °F - 46.9 °F 89% 29.42 in 10.0 mi Calm Calm - N/A   Mostly Cloudy
11:52 AM 50.0 °F - 46.9 °F 89% 29.44 in 10.0 mi Calm Calm - N/A   Mostly Cloudy
12:52 PM 50.0 °F - 48.9 °F 96% 29.46 in 10.0 mi Calm Calm - 0.00 in Rain Light Rain
1:52 PM 50.0 °F - 48.9 °F 96% 29.48 in 7.0 mi Variable 3.5 mph - 0.03 in Rain Rain
2:11 PM 50.0 °F - 48.2 °F 94% 29.48 in 4.0 mi Variable 3.5 mph - 0.02 in Rain Light Rain
2:52 PM 50.0 °F - 48.9 °F 96% 29.49 in 4.0 mi Calm Calm - 0.07 in Rain Light Rain
3:21 PM 51.8 °F - 50.0 °F 94% 29.48 in 10.0 mi Calm Calm - 0.00 in   Overcast
3:52 PM 53.1 °F - 50.0 °F 89% 29.49 in 10.0 mi East 3.5 mph - 0.01 in Rain Light Rain
4:52 PM 53.1 °F - 50.0 °F 89% 29.52 in 10.0 mi SE 5.8 mph - 0.00 in   Mostly Cloudy
5:52 PM 55.9 °F - 51.1 °F 84% 29.52 in 10.0 mi SE 4.6 mph - 0.00 in   Mostly Cloudy
6:52 PM 53.1 °F - 46.9 °F 80% 29.53 in 10.0 mi ESE 4.6 mph - N/A   Mostly Cloudy
7:52 PM 52.0 °F - 48.0 °F 86% 29.55 in 10.0 mi East 3.5 mph - N/A   Mostly Cloudy
8:52 PM 50.0 °F - 48.9 °F 96% 29.58 in 10.0 mi South 6.9 mph - 0.02 in Rain Light Rain
9:00 PM 50.0 °F - 50.0 °F 100% 29.58 in 10.0 mi SSE 9.2 mph - 0.01 in Rain Light Rain
9:52 PM 50.0 °F - 48.9 °F 96% 29.60 in 10.0 mi ESE 3.5 mph - 0.05 in   Overcast
9:59 PM 50.0 °F - 48.2 °F 94% 29.59 in 10.0 mi East 5.8 mph - N/A   Overcast
10:52 PM 48.9 °F - 48.0 °F 97% 29.64 in 10.0 mi ESE 6.9 mph - N/A   Mostly Cloudy
11:52 PM 48.0 °F - 46.0 °F 93% 29.67 in 10.0 mi SE 8.1 mph - 0.01 in Rain Light Rain